TimeCDT,TemperatureF,Dew PointF,Humidity,Sea Level PressureIn,VisibilityMPH,Wind Direction,Wind SpeedMPH,Gust SpeedMPH,PrecipitationIn,Events,Conditions,WindDirDegrees,DateUTC
12:15 AM,66.2,44.6,46,29.92,10.0,North,5.8,-,N/A,,Clear,10,2013-09-22 05:15:00
12:35 AM,66.2,44.6,46,29.91,10.0,North,5.8,-,N/A,,Clear,10,2013-09-22 05:35:00
12:55 AM,66.2,44.6,46,29.92,10.0,North,5.8,-,N/A,,Clear,10,2013-09-22 05:55:00
1:15 AM,66.2,44.6,46,29.91,10.0,North,5.8,-,N/A,,Clear,10,2013-09-22 06:15:00
1:35 AM,64.4,44.6,49,29.91,10.0,North,8.1,-,N/A,,Clear,10,2013-09-22 06:35:00
1:55 AM,64.4,44.6,49,29.91,10.0,NNE,8.1,-,N/A,,Clear,20,2013-09-22 06:55:00
2:15 AM,64.4,44.6,49,29.91,10.0,NNE,9.2,-,N/A,,Clear,20,2013-09-22 07:15:00
2:35 AM,64.4,44.6,49,29.91,10.0,NNE,8.1,-,N/A,,Clear,20,2013-09-22 07:35:00
2:55 AM,64.4,44.6,49,29.90,10.0,NNE,9.2,-,N/A,,Clear,20,2013-09-22 07:55:00
3:15 AM,64.4,46.4,52,29.90,10.0,NNE,8.1,-,N/A,,Clear,20,2013-09-22 08:15:00
3:35 AM,62.6,46.4,55,29.89,10.0,NNE,9.2,-,N/A,,Clear,20,2013-09-22 08:35:00
3:55 AM,62.6,46.4,55,29.89,10.0,NNE,9.2,-,N/A,,Clear,20,2013-09-22 08:55:00
4:15 AM,62.6,46.4,55,29.88,10.0,NNE,8.1,-,N/A,,Clear,20,2013-09-22 09:15:00
4:35 AM,62.6,46.4,55,29.88,10.0,NNE,8.1,-,N/A,,Clear,20,2013-09-22 09:35:00
4:55 AM,62.6,48.2,59,29.88,10.0,NNE,8.1,-,N/A,,Clear,20,2013-09-22 09:55:00
5:15 AM,60.8,48.2,63,29.88,10.0,North,8.1,-,N/A,,Clear,10,2013-09-22 10:15:00
5:35 AM,60.8,48.2,63,29.89,10.0,North,8.1,-,N/A,,Clear,10,2013-09-22 10:35:00
5:55 AM,60.8,48.2,63,29.89,10.0,North,6.9,-,N/A,,Clear,10,2013-09-22 10:55:00
6:15 AM,60.8,48.2,63,29.90,10.0,North,6.9,-,N/A,,Clear,360,2013-09-22 11:15:00
6:35 AM,60.8,48.2,63,29.90,10.0,NW,4.6,-,N/A,,Clear,320,2013-09-22 11:35:00
6:55 AM,60.8,50.0,68,29.91,10.0,NNE,6.9,-,N/A,,Clear,20,2013-09-22 11:55:00
7:15 AM,60.8,50.0,68,29.91,10.0,North,6.9,-,N/A,,Clear,360,2013-09-22 12:15:00
7:35 AM,60.8,50.0,68,29.90,10.0,NNE,8.1,-,N/A,,Clear,20,2013-09-22 12:35:00
7:55 AM,60.8,50.0,68,29.91,10.0,NNE,6.9,-,N/A,,Clear,20,2013-09-22 12:55:00
8:15 AM,62.6,50.0,63,29.92,10.0,North,5.8,-,N/A,,Clear,10,2013-09-22 13:15:00
8:35 AM,64.4,50.0,59,29.92,10.0,NNE,5.8,-,N/A,,Clear,30,2013-09-22 13:35:00
8:55 AM,66.2,51.8,60,29.93,10.0,NE,6.9,-,N/A,,Clear,40,2013-09-22 13:55:00
9:15 AM,68.0,51.8,56,29.93,10.0,NE,5.8,-,N/A,,Clear,50,2013-09-22 14:15:00
9:35 AM,69.8,51.8,53,29.94,10.0,ENE,3.5,-,N/A,,Clear,70,2013-09-22 14:35:00
9:55 AM,71.6,51.8,50,29.95,10.0,ENE,8.1,-,N/A,,Clear,60,2013-09-22 14:55:00
10:15 AM,71.6,51.8,50,29.95,10.0,NE,8.1,-,N/A,,Clear,50,2013-09-22 15:15:00
10:35 AM,73.4,50.0,44,29.95,10.0,NNE,5.8,-,N/A,,Clear,30,2013-09-22 15:35:00
10:55 AM,73.4,50.0,44,29.95,10.0,North,8.1,-,N/A,,Clear,10,2013-09-22 15:55:00
11:15 AM,77.0,50.0,39,29.95,10.0,ENE,10.4,-,N/A,,Clear,70,2013-09-22 16:15:00
11:35 AM,75.2,48.2,38,29.95,10.0,NNE,8.1,17.3,N/A,,Clear,20,2013-09-22 16:35:00
11:55 AM,77.0,46.4,34,29.94,10.0,ENE,10.4,16.1,N/A,,Clear,60,2013-09-22 16:55:00
12:15 PM,77.0,46.4,34,29.94,10.0,East,6.9,16.1,N/A,,Clear,80,2013-09-22 17:15:00
12:35 PM,78.8,46.4,32,29.93,10.0,NNE,9.2,-,N/A,,Clear,30,2013-09-22 17:35:00
12:55 PM,78.8,46.4,32,29.93,10.0,East,5.8,16.1,N/A,,Clear,90,2013-09-22 17:55:00
1:15 PM,78.8,46.4,32,29.92,10.0,NNE,6.9,-,N/A,,Clear,20,2013-09-22 18:15:00
1:35 PM,78.8,46.4,32,29.91,10.0,East,8.1,16.1,N/A,,Clear,80,2013-09-22 18:35:00
1:55 PM,80.6,46.4,30,29.91,10.0,NE,6.9,-,N/A,,Clear,50,2013-09-22 18:55:00
2:15 PM,80.6,44.6,28,29.89,10.0,ENE,5.8,-,N/A,,Clear,60,2013-09-22 19:15:00
2:35 PM,80.6,46.4,30,29.88,10.0,NE,6.9,16.1,N/A,,Clear,50,2013-09-22 19:35:00
2:55 PM,80.6,44.6,28,29.87,10.0,North,5.8,-,N/A,,Clear,360,2013-09-22 19:55:00
3:15 PM,80.6,46.4,30,29.87,10.0,NE,8.1,-,N/A,,Clear,40,2013-09-22 20:15:00
3:35 PM,82.4,44.6,26,29.86,10.0,East,3.5,-,N/A,,Clear,90,2013-09-22 20:35:00
3:55 PM,82.4,42.8,25,29.85,10.0,ENE,6.9,-,N/A,,Clear,60,2013-09-22 20:55:00
4:15 PM,82.4,44.6,26,29.84,10.0,East,5.8,-,N/A,,Clear,100,2013-09-22 21:15:00
4:35 PM,82.4,42.8,25,29.84,10.0,NE,3.5,-,N/A,,Clear,50,2013-09-22 21:35:00
4:55 PM,82.4,42.8,25,29.83,10.0,ENE,9.2,-,N/A,,Clear,70,2013-09-22 21:55:00
5:15 PM,82.4,42.8,25,29.83,10.0,ENE,9.2,-,N/A,,Clear,70,2013-09-22 22:15:00
5:35 PM,80.6,42.8,26,29.82,10.0,East,5.8,-,N/A,,Clear,80,2013-09-22 22:35:00
5:55 PM,80.6,41.0,24,29.82,10.0,NE,8.1,-,N/A,,Clear,50,2013-09-22 22:55:00
6:15 PM,80.6,42.8,26,29.83,10.0,NE,5.8,-,N/A,,Clear,50,2013-09-22 23:15:00
6:35 PM,78.8,42.8,28,29.83,10.0,NE,5.8,-,N/A,,Clear,40,2013-09-22 23:35:00
6:55 PM,78.8,44.6,30,29.83,10.0,ENE,4.6,-,N/A,,Clear,60,2013-09-22 23:55:00
7:15 PM,75.2,44.6,34,29.83,10.0,NE,5.8,-,N/A,,Clear,50,2013-09-23 00:15:00
7:35 PM,73.4,44.6,36,29.83,10.0,ENE,5.8,-,N/A,,Clear,60,2013-09-23 00:35:00
7:55 PM,71.6,46.4,41,29.83,10.0,ENE,4.6,-,N/A,,Clear,60,2013-09-23 00:55:00
8:15 PM,71.6,46.4,41,29.83,10.0,ENE,4.6,-,N/A,,Clear,70,2013-09-23 01:15:00
8:35 PM,69.8,46.4,43,29.83,10.0,ENE,5.8,-,N/A,,Clear,70,2013-09-23 01:35:00
8:55 PM,69.8,46.4,43,29.84,10.0,ENE,5.8,-,N/A,,Clear,70,2013-09-23 01:55:00
9:15 PM,69.8,46.4,43,29.84,10.0,East,5.8,-,N/A,,Clear,80,2013-09-23 02:15:00
9:35 PM,69.8,46.4,43,29.84,10.0,ENE,5.8,-,N/A,,Clear,70,2013-09-23 02:35:00
9:55 PM,68.0,48.2,49,29.85,10.0,ENE,5.8,-,N/A,,Clear,70,2013-09-23 02:55:00
10:15 PM,68.0,48.2,49,29.85,10.0,ENE,5.8,-,N/A,,Clear,70,2013-09-23 03:15:00
10:35 PM,68.0,48.2,49,29.86,10.0,ENE,4.6,-,N/A,,Clear,70,2013-09-23 03:35:00
10:55 PM,68.0,48.2,49,29.86,10.0,ENE,4.6,-,N/A,,Clear,70,2013-09-23 03:55:00
11:15 PM,68.0,48.2,49,29.85,10.0,ENE,5.8,-,N/A,,Clear,70,2013-09-23 04:15:00
11:35 PM,68.0,48.2,49,29.85,10.0,ENE,6.9,-,N/A,,Clear,70,2013-09-23 04:35:00
11:55 PM,68.0,48.2,49,29.85,10.0,ENE,4.6,-,N/A,,Clear,70,2013-09-23 04:55:00